Location: Amanico Ergina Village
(37.7824°N, 122.4366°W)
Time: 15:38:12
(UTC+00:00)

SL-16 R/B - Pass Details

Date: 29 October 2020
Orbit: 842 x 846 km, 71.0° (Epoch: 01 December)

Event Time Altitude Azimuth Distance (km) Brightness Sun altitude
Rises 14:00:20 0° 338° (NNW) 3,411 5.0 -7.0°
Reaches altitude 10° 14:02:48 10° 339° (NNW) 2,473 4.3 -6.5°
Maximum altitude 14:08:29 83° 68° (ENE) 856 2.4 -5.5°
Drops below altitude 10° 14:14:09 10° 157° (SSE) 2,458 5.2 -4.4°
Sets 14:16:35 0° 158° (SSE) 3,390 5.9 -3.9°
